Date String (YYYY-MM-DD hh:mm:ss) UTC,Instrument flags,absolute air pressure of the measurement (hPa),sample flow rate (lpm),inlet stack bypass flow (lpm),air temperature of the measurement (°C),ambient temperature measured by the external sensor (°C),aerosol sample conditioner tube jacket temperature (°C),OPC LED temperature (°C),internal box temperature (°C),relative humidity of the measurement (%),span deviation,mass concentration of particles derived from Lorenz-Mie calculation of OPC scattering (μg/m³),mass concentration of particles derived from Lorenz-Mie calculation of OPC scattering (μg/m³),mass concentration of particles derived from Lorenz-Mie calculation of OPC scattering (μg/m³)
DateTimeUTC,F1_M11,P_M11,Q1_M11,Q2_M11,T1_M11,T2_M11,T3_M11,T4_M11,T5_M11,U1_M11,ZSPAN_M11,X0_M11,X2_M11,X1_M11
2023-10-31 21:00:00,SystemResetWarning,0835.7,5.00,000.00,025.2,024.3,000.0,033.6,026.6,9.3,-000.2,0009.71,0006.65,0006.30
2023-10-31 21:01:00,SystemResetWarning,0835.3,4.99,000.00,025.2,024.3,000.0,033.6,026.6,9.5,-000.6,0009.76,0006.65,0006.30
2023-10-31 21:02:00,SystemResetWarning,0835.3,5.00,000.00,025.2,024.3,000.0,033.6,026.6,9.4,0000.6,0009.64,0006.59,0006.27
2023-10-31 21:03:00,SystemResetWarning,0835.3,5.01,000.00,025.2,024.3,000.0,033.5,026.6,9.7,0000.4,0009.49,0006.53,0006.23
2023-10-31 21:04:00,SystemResetWarning,0835.2,5.01,000.00,025.2,024.3,000.0,033.6,026.6,9.6,0000.5,0009.39,0006.49,0006.20
2023-10-31 21:05:00,SystemResetWarning,0835.3,5.00,000.00,025.2,024.3,000.0,033.6,026.6,9.5,0002.1,0009.37,0006.47,0006.18
2023-10-31 21:06:00,SystemResetWarning,0835.2,4.99,000.00,025.2,024.3,000.0,033.6,026.6,9.6,0001.9,0009.28,0006.43,0006.14
2023-10-31 21:07:00,SystemResetWarning,0835.2,5.01,000.00,025.2,024.3,000.0,033.6,026.6,9.6,0003.3,0009.21,0006.36,0006.07
2023-10-31 21:08:00,SystemResetWarning,0835.2,5.00,000.00,025.2,024.3,000.0,033.6,026.6,9.6,0000.9,0009.22,0006.28,0006.00
2023-10-31 21:09:00,SystemResetWarning,0835.3,4.99,000.00,025.2,024.3,000.0,033.6,026.6,9.3,0000.0,0009.46,0006.21,0005.93
2023-10-31 21:10:00,SystemResetWarning,0835.3,4.99,000.00,025.2,024.3,000.0,033.6,026.6,9.4,0002.3,0009.51,0006.18,0005.88
2023-10-31 21:11:00,SystemResetWarning,0835.3,5.01,000.00,025.2,024.3,000.0,033.6,026.6,9.5,0002.5,0009.18,0006.15,0005.84
2023-10-31 21:12:00,SystemResetWarning,0835.2,5.01,000.00,025.2,024.3,000.0,033.6,026.6,9.5,0003.2,0009.22,0006.09,0005.80
2023-10-31 21:13:00,SystemResetWarning,0835.2,4.99,000.00,025.2,024.3,000.0,033.6,026.6,9.5,0002.3,0009.73,0006.04,0005.73
2023-10-31 21:14:00,SystemResetWarning,0835.3,4.99,000.00,025.2,024.3,000.0,033.6,026.6,9.5,0001.6,0009.85,0005.99,0005.69
2023-10-31 21:15:00,SystemResetWarning,0835.2,5.01,000.00,025.2,024.3,000.0,033.6,026.6,9.6,0001.5,0010.30,0005.97,0005.65
2023-10-31 21:16:00,SystemResetWarning,0835.2,5.01,000.00,025.2,024.3,000.0,033.6,026.6,9.7,0000.9,0010.57,0005.91,0005.61
2023-10-31 21:17:00,SystemResetWarning,0835.2,5.00,000.00,025.2,024.3,000.0,033.6,026.6,9.8,0000.3,0010.55,0005.89,0005.58
2023-10-31 21:18:00,SystemResetWarning,0835.2,4.98,000.00,025.2,024.3,000.0,033.6,026.6,9.4,0000.8,0010.56,0005.90,0005.60
2023-10-31 21:19:00,SystemResetWarning,0835.2,5.00,000.00,025.2,024.3,000.0,033.6,026.6,9.5,0000.5,0010.66,0005.95,0005.62
2023-10-31 21:20:00,SystemResetWarning,0835.1,5.01,000.00,025.2,024.3,000.0,033.6,026.6,9.4,0000.2,0010.35,0005.98,0005.65
2023-10-31 21:21:00,SystemResetWarning,0835.2,5.00,000.00,025.2,024.3,000.0,033.6,026.6,9.5,-000.1,0010.41,0006.04,0005.68
2023-10-31 21:22:00,SystemResetWarning,0835.2,4.99,000.00,025.2,024.2,000.0,033.6,026.6,9.6,-000.5,0010.73,0006.08,0005.72
2023-10-31 21:23:00,SystemResetWarning,0835.1,4.99,000.00,025.2,024.2,000.0,033.5,026.5,9.4,0000.2,0010.80,0006.11,0005.75
2023-10-31 21:24:00,SystemResetWarning,0835.2,5.01,000.00,025.2,024.2,000.0,033.5,026.5,9.7,0000.5,0010.25,0006.12,0005.78
2023-10-31 21:25:00,SystemResetWarning,0835.2,5.01,000.00,025.2,024.2,000.0,033.5,026.5,9.6,0001.6,0010.19,0006.16,0005.82
2023-10-31 21:26:00,SystemResetWarning,0835.2,5.00,000.00,025.2,024.2,000.0,033.5,026.5,9.6,0002.3,0009.98,0006.19,0005.83
2023-10-31 21:27:00,SystemResetWarning,0835.2,4.99,000.00,025.2,024.2,000.0,033.5,026.6,9.6,0003.7,0009.63,0006.20,0005.85
2023-10-31 21:28:00,SystemResetWarning,0835.1,4.98,000.00,025.2,024.2,000.0,033.5,026.5,9.5,0004.6,0009.63,0006.21,0005.86
2023-10-31 21:29:00,SystemResetWarning,0835.2,5.01,000.00,025.2,024.2,000.0,033.5,026.5,9.8,0005.0,0009.68,0006.24,0005.86
2023-10-31 21:30:00,SystemResetWarning,0835.2,5.02,000.00,025.2,024.2,000.0,033.5,026.5,9.8,0005.0,0009.74,0006.24,0005.86
2023-10-31 21:31:00,SystemResetWarning,0835.2,4.99,000.00,025.1,024.2,000.0,033.5,026.4,9.4,0004.8,0009.82,0006.27,0005.87
2023-10-31 21:32:00,SystemResetWarning,0835.2,4.99,000.00,025.1,024.2,000.0,033.5,026.4,9.5,0002.9,0009.90,0006.28,0005.89
2023-10-31 21:33:00,SystemResetWarning,0835.2,4.99,000.00,025.1,024.2,000.0,033.5,026.4,9.6,0000.0,0009.66,0006.27,0005.89
2023-10-31 21:34:00,SystemResetWarning,0835.2,5.02,000.00,025.1,024.2,000.0,033.5,026.4,9.6,0000.0,0009.56,0006.27,0005.90
2023-10-31 21:35:00,SystemResetWarning,0835.2,5.00,000.00,025.1,024.2,000.0,033.5,026.4,9.9,0000.0,0009.58,0006.30,0005.93
2023-10-31 21:36:00,SystemResetWarning,0835.2,4.98,000.00,025.1,024.2,000.0,033.5,026.5,9.8,0000.0,0009.53,0006.33,0005.96
2023-10-31 21:37:00,SystemResetWarning,0835.2,5.00,000.00,025.1,024.2,000.0,033.5,026.5,9.9,0000.0,0009.69,0006.37,0005.99
2023-10-31 21:38:00,SystemResetWarning,0835.3,5.01,000.00,025.1,024.2,000.0,033.5,026.5,10.0,0000.0,0009.60,0006.41,0006.02
2023-10-31 21:39:00,SystemResetWarning,0835.3,5.01,000.00,025.1,024.2,000.0,033.5,026.5,9.7,0000.0,0009.66,0006.46,0006.05
2023-10-31 21:40:00,SystemResetWarning,0835.3,5.00,000.00,025.1,024.2,000.0,033.5,026.5,9.8,0000.0,0009.72,0006.49,0006.07
2023-10-31 21:41:00,SystemResetWarning,0835.3,5.00,000.00,025.1,024.2,000.0,033.5,026.5,10.0,0000.0,0009.75,0006.49,0006.10
2023-10-31 21:42:00,SystemResetWarning,0835.3,4.99,000.00,025.1,024.2,000.0,033.5,026.4,10.0,0000.0,0010.10,0006.49,0006.11
2023-10-31 21:43:00,SystemResetWarning,0835.2,4.99,000.00,025.1,024.2,000.0,033.5,026.5,9.9,0000.0,0010.24,0006.50,0006.13
2023-10-31 21:44:00,SystemResetWarning,0835.3,5.01,000.00,025.1,024.2,000.0,033.5,026.5,9.9,0001.3,0010.76,0006.53,0006.15
2023-10-31 21:45:00,SystemResetWarning,0835.3,5.01,000.00,025.1,024.2,000.0,033.5,026.5,9.7,-000.1,0010.71,0006.54,0006.16
2023-10-31 21:46:00,SystemResetWarning,0835.3,5.01,000.00,025.2,024.2,000.0,033.5,026.6,9.8,-000.0,0010.77,0006.54,0006.16
2023-10-31 21:47:00,SystemResetWarning,0835.2,5.01,000.00,025.2,024.2,000.0,033.5,026.6,10.0,0000.0,0010.78,0006.52,0006.15
2023-10-31 21:48:00,SystemResetWarning,0835.2,4.99,000.00,025.2,024.3,000.0,033.5,026.5,9.8,0001.2,0010.71,0006.53,0006.16
2023-10-31 21:49:00,SystemResetWarning,0835.2,4.99,000.00,025.2,024.3,000.0,033.5,026.6,9.9,0001.4,0010.74,0006.56,0006.18
2023-10-31 21:50:00,SystemResetWarning,0835.2,5.01,000.00,025.2,024.3,000.0,033.5,026.6,9.9,0000.8,0011.23,0006.57,0006.20
2023-10-31 21:51:00,SystemResetWarning,0835.2,5.00,000.00,025.2,024.3,000.0,033.5,026.6,9.8,0000.8,0011.95,0006.59,0006.24
2023-10-31 21:52:00,SystemResetWarning,0835.2,4.99,000.00,025.2,024.3,000.0,033.5,026.6,9.9,0000.9,0011.97,0006.61,0006.24
2023-10-31 21:53:00,SystemResetWarning,0835.2,4.99,000.00,025.2,024.3,000.0,033.5,026.6,9.9,0000.8,0011.68,0006.63,0006.25
2023-10-31 21:54:00,SystemResetWarning,0835.2,4.99,000.00,025.2,024.3,000.0,033.5,026.6,9.9,0000.4,0011.62,0006.63,0006.26
2023-10-31 21:55:00,SystemResetWarning,0835.1,5.02,000.00,025.2,024.3,000.0,033.5,026.6,10.0,0000.6,0012.21,0006.65,0006.25
2023-10-31 21:56:00,SystemResetWarning,0835.1,5.00,000.00,025.2,024.3,000.0,033.5,026.6,9.9,0000.7,0012.48,0006.68,0006.25
2023-10-31 21:57:00,SystemResetWarning,0835.2,4.99,000.00,025.2,024.3,000.0,033.5,026.6,10.0,0001.0,0013.43,0006.71,0006.26
2023-10-31 21:58:00,SystemResetWarning,0835.1,5.01,000.00,025.2,024.3,000.0,033.5,026.5,9.8,0001.2,0013.50,0006.76,0006.27
2023-10-31 21:59:00,SystemResetWarning,0835.1,5.01,000.00,025.2,024.3,000.0,033.5,026.5,9.9,0001.0,0013.51,0006.77,0006.25
